Massena, NY

6:44 AM EST on December 13, 2019 (GMT -0500)
Massena International-Richards

Weather History for KMSS - October, 2019

Change the Weather History Date:

Tuesday, October 15, 2019

  Actual Average Record
Temperature  
Mean Temperature 44 °F 46 °F  
Max Temperature 57 °F 57 °F 80 °F (1956)
Min Temperature 32 °F 37 °F 21 °F (1980)
Degree Days  
Heating Degree Days 20 19  
Month to date heating degree days 239  
Since 1 July heating degree days 539  
Cooling Degree Days 0 0  
Month to date cooling degree days 0  
Year to date cooling degree days 361  
Moisture  
Dew Point 35 °F    
Average Humidity 71    
Maximum Humidity 88    
Minimum Humidity 42    
Precipitation  
Precipitation 0.00 in 0.10 in 1.90 in (2003)
Month to date precipitation 1.65  
Year to date precipitation 27.84  
Sea Level Pressure  
Sea Level Pressure 30.09 in    
Wind  
Wind Speed 4 mph (SW)    
Max Wind Speed 17 mph    
Max Gust Speed 23 mph    
Visibility 10 miles    
Events      
T = Trace of Precipitation, MM = Missing Value Source: NWS Daily Summary

Daily Weather History Graph

Daily Weather History Graph

Search for Another Location

Airport or City:

Astronomy

Oct. 15, 2019 Rise Set
Actual Time 7:14 AM EDT 6:14 PM EDT
Civil Twilight 6:45 AM EDT 6:44 PM EDT
Nautical Twilight 6:11 AM EDT 7:18 PM EDT
Astronomical Twilight 5:37 AM EDT 7:52 PM EDT
Moon 7:30 PM EDT (10/15) 8:44 AM EDT (10/15)
Length of Visible Light 11h 59m
Length of Day
11h 00m
Full, 97% of the Moon is Illuminated
Oct 15
Full
Oct 21
Last Quarter
Oct 27
New
Nov 4
First Quarter
Nov 12
Full

Hourly Weather History & Observations

Time (EDT) Temp. Windchill Dew Point Humidity Pressure Visibility Wind Dir Wind Speed Gust Speed Precip Events Conditions
12:53 AM 39.9 °F 37.8 °F 35.1 °F 83% 30.07 in 10.0 mi SW 3.5 mph - N/A   Partly Cloudy
1:53 AM 36.0 °F - 32.0 °F 86% 30.08 in 10.0 mi Calm Calm - N/A   Clear
2:53 AM 37.9 °F 33.5 °F 33.1 °F 83% 30.08 in 10.0 mi SW 5.8 mph - N/A   Clear
3:53 AM 37.0 °F 34.5 °F 32.0 °F 82% 30.09 in 10.0 mi SW 3.5 mph - N/A   Clear
4:53 AM 32.0 °F - 28.9 °F 88% 30.12 in 10.0 mi Calm Calm - N/A   Clear
5:53 AM 36.0 °F - 32.0 °F 86% 30.12 in 10.0 mi Calm Calm - N/A   Overcast
6:53 AM 37.0 °F 34.5 °F 33.1 °F 86% 30.12 in 10.0 mi South 3.5 mph - N/A   Overcast
7:53 AM 39.0 °F 34.8 °F 34.0 °F 82% 30.14 in 10.0 mi SW 5.8 mph - N/A   Scattered Clouds
8:53 AM 44.1 °F 40.1 °F 36.0 °F 73% 30.15 in 10.0 mi SW 6.9 mph - N/A   Clear
9:53 AM 48.0 °F - 37.0 °F 66% 30.15 in 10.0 mi WSW 8.1 mph - N/A   Clear
10:53 AM 51.1 °F - 37.9 °F 61% 30.14 in 10.0 mi SW 10.4 mph - N/A   Clear
11:53 AM 54.0 °F - 37.9 °F 55% 30.12 in 10.0 mi WSW 8.1 mph - N/A   Clear
12:53 PM 54.0 °F - 36.0 °F 51% 30.11 in 10.0 mi WSW 5.8 mph - N/A   Mostly Cloudy
1:53 PM 55.0 °F - 36.0 °F 49% 30.09 in 10.0 mi Variable 6.9 mph 17.3 mph N/A   Mostly Cloudy
2:53 PM 57.9 °F - 35.1 °F 42% 30.08 in 10.0 mi SW 17.3 mph 23.0 mph N/A   Overcast
3:53 PM 57.9 °F - 35.1 °F 42% 30.07 in 10.0 mi SW 11.5 mph 20.7 mph N/A   Partly Cloudy
4:53 PM 55.9 °F - 36.0 °F 47% 30.06 in 10.0 mi SW 11.5 mph - N/A   Scattered Clouds
5:53 PM 53.1 °F - 37.0 °F 55% 30.06 in 10.0 mi WSW 6.9 mph - N/A   Clear
6:53 PM 43.0 °F - 35.1 °F 74% 30.07 in 10.0 mi Calm Calm - N/A   Clear
7:53 PM 42.1 °F - 36.0 °F 79% 30.07 in 10.0 mi Calm Calm - N/A   Clear
8:53 PM 39.9 °F - 35.1 °F 83% 30.06 in 10.0 mi Calm Calm - N/A   Clear
9:53 PM 41.0 °F - 36.0 °F 82% 30.06 in 10.0 mi Calm Calm - N/A   Clear
10:53 PM 39.0 °F - 35.1 °F 86% 30.04 in 10.0 mi Calm Calm - N/A   Clear
11:53 PM 39.9 °F - 36.0 °F 86% 30.02 in 10.0 mi Calm Calm - N/A   Clear